Location: Aubercourt
(49.8270°N, 2.5483°E)
Time: 22:34:11
(UTC+00:00)

Daily predictions for brighter satellites

Satellite Brightness Start Highest point End
(mag) Time Altitude Azimuth Time Altitude Azimuth Time Altitude Azimuth
Cosmos 2026 Rocket 4.4 16:19:51 10° N 16:25:32 37° ENE 16:31:06 10° SE
Cosmos 2322 Rocket 3.8 16:24:11 10° N 16:27:34 16° NNE 16:30:57 10° ENE
Cosmos 1743 Rocket 3.7 16:23:41 10° N 16:27:55 51° ENE 16:32:08 10° SSE
USA 305 3.4 16:24:01 10° W 16:28:09 48° N 16:32:17 10° ENE
Cosmos 1697 Rocket 2.7 16:23:47 10° NNW 16:29:24 69° ENE 16:35:00 10° SE
CZ-4B R/B 2.8 16:26:21 10° SSE 16:30:16 59° ENE 16:34:02 10° N
Cosmos 1933 4.2 16:27:32 10° SSE 16:31:04 29° E 16:34:35 10° NNE
Cosmos 1980 Rocket 2.5 16:28:39 10° NNW 16:34:05 44° NE 16:39:28 10° SE
Cosmos 1271 Rocket 4.1 16:30:40 10° SW 16:34:25 41° WNW 16:38:14 10° N
SL-08 R/B 3.3 16:30:15 10° NNE 16:34:58 70° ESE 16:39:36 10° S
Okean O Rocket 3.1 16:34:49 10° E 16:37:35 16° ENE 16:40:20 10° NNE
Cosmos 540 Rocket 4.1 16:33:44 10° SSE 16:38:20 35° ESE 16:42:57 10° NE
Cosmos 2369 3.8 16:32:51 10° NNW 16:38:31 56° NE 16:44:08 10° SE
SJ 16-02 4.0 16:35:21 10° NW 16:38:53 24° W 16:42:25 10° SSW
FengYun 1-2 T 4.3 16:33:23 10° SSE 16:38:53 64° ENE 16:44:22 10° N
Cosmos 1812 4.3 16:43:57 10° SE 16:46:30 17° E 16:48:49 11° NE
Meteor PRIRODA 3.6 16:42:54 10° SSE 16:46:32 87° WSW 16:50:11 10° NNW
SL-16 R/B 3.4 16:42:09 10° NNW 16:46:32 22° NE 16:50:54 10° E
ERBS 3.5 16:44:14 10° W 16:47:06 29° NNW 16:49:40 12° NE
NOAA 12 4.1 16:42:03 10° SSE 16:47:23 86° ENE 16:52:44 10° NNW
CORIOLIS 4.2 16:45:38 10° SSE 16:50:55 59° ENE 16:56:16 10° N
Cosmos 2082 Rocket 3.0 16:47:11 10° SSE 16:52:09 32° ESE 16:56:54 11° NE
Meteor 1-25 Rocket 4.2 16:49:07 10° N 16:54:43 81° ENE 17:00:20 10° SSE
Cosmos 1500 Rocket 3.7 16:51:37 10° NNW 16:56:05 79° W 17:00:28 10° S
Cosmos 468 Rocket 4.0 16:52:09 10° SSW 16:57:19 79° ESE 17:02:33 10° NNE
Cosmos 2333 Rocket 4.0 16:56:24 10° N 16:58:50 13° NNE 17:00:43 11° NE
USA 306 3.3 16:56:20 10° WNW 17:00:28 47° N 17:03:34 16° ENE
Cosmos 1898 Rocket 3.9 16:56:15 10° NNW 17:01:30 71° WSW 17:06:39 10° SSE
Cosmos 2278 3.9 16:56:35 10° NNW 17:02:10 51° NE 17:07:42 10° SE
Cosmos 1818 4.0 16:57:51 10° NNW 17:03:04 42° NE 17:08:14 10° ESE
Cosmos 1602 3.6 16:59:19 10° N 17:03:12 76° E 17:07:04 10° SSE
Sich 1 3.0 16:59:04 10° N 17:03:19 59° ENE 17:07:35 10° SSE
CZ-4B DEB 4.2 16:58:20 10° SSE 17:03:46 65° ENE 17:09:13 10° N
Cosmos 2221 3.6 17:00:40 10° SSW 17:04:46 45° WNW 17:08:57 10° N
Cosmos 1939 Rocket 2.9 17:01:18 10° SSE 17:05:25 90° WSW 17:09:31 10° NNW
ARGOS 3.8 17:02:29 10° SE 17:07:17 33° ENE 17:12:05 10° N
Cosmos 1805 Rocket 3.4 17:03:39 10° N 17:08:01 83° E 17:12:21 10° S
Cosmos 1833 Rocket 2.7 17:06:11 10° SSW 17:11:48 86° ESE 17:17:29 10° NNE
NOSS 2-2 (C) 4.4 17:10:38 10° NW 17:15:40 86° SW 17:22:46 10° SE
COSMOS 2406 3.2 17:10:01 10° SSW 17:15:44 74° ESE 17:21:11 12° NNE
GEOS 3 Rocket 4.3 17:13:44 17° E 17:17:08 34° NNE 17:21:45 10° NNW
deb Chang Zheng 4 4.0 17:14:30 10° SE 17:18:30 38° ENE 17:22:31 10° N
USA 307 3.3 17:15:34 10° WNW 17:19:43 48° N 17:21:59 24° ENE
Cosmos 2219 Rocket 4.0 17:17:17 10° N 17:19:48 13° NNE 17:20:35 13° NE
USA 267 3.3 17:16:34 17° ENE 17:21:53 81° SSE 17:28:26 10° SW
CZ-2C R/B 4.2 17:17:23 10° S 17:22:00 42° W 17:26:33 10° NNW
Cosmos 1092 Rocket 4.2 17:15:49 10° NNW 17:22:11 79° W 17:28:31 10° S
Cosmos 1428 Rocket 4.5 17:16:47 10° N 17:22:57 86° W 17:29:07 10° S
Cosmos 1782 2.7 17:19:33 10° S 17:23:32 71° E 17:27:31 10° NNE
CZ-2C R/B 3.1 17:21:47 12° NNE 17:26:12 36° E 17:30:57 10° SSE
Cosmos 1500 3.1 17:24:09 10° N 17:27:55 86° W 17:31:38 10° S
Cosmos 1763 Rocket 4.0 17:23:48 10° SW 17:28:48 58° WNW 17:33:53 10° NNE
Cosmos 2150 Rocket 4.5 17:24:30 10° N 17:29:17 36° NE 17:33:12 14° ESE
SL-08 RB Rocket 4.4 17:25:29 10° SE 17:29:34 32° ENE 17:33:40 10° N
CZ-4C R/B 2.9 17:22:42 10° NW 17:29:46 83° NE 17:38:09 10° SE
CZ-2D R/B 3.1 17:26:01 10° SSE 17:29:50 80° ENE 17:33:40 10° N
Meteor 2-16 Rocket 4.4 17:25:00 10° N 17:31:06 65° ENE 17:37:11 10° SSE
H-2A R/B 1.9 17:27:58 10° SSE 17:33:07 78° ENE 17:38:09 10° NNW
CZ-4B R/B 3.1 17:29:14 10° SSE 17:34:33 64° ENE 17:39:50 10° N
Cosmos 841 Rocket 3.4 17:30:58 10° SSW 17:36:06 80° ESE 17:40:21 15° NNE
PAYLOAD B 4.2 17:30:47 10° SSE 17:36:24 89° E 17:42:03 10° NNW
ATLAS CENTAUR R/B 3.8 17:34:30 10° NW 17:37:08 15° NNW 17:39:25 11° NNE
USA 308 3.2 17:38:11 10° WNW 17:42:20 51° N 17:43:39 36° ENE
SMAP 4.2 17:38:20 10° S 17:42:48 45° W 17:47:17 10° NNW
Lacrosse 5 rocket 1.2 17:39:30 10° NW 17:43:23 68° NNE 17:44:49 37° E
COSMO-SKYMED 1 2.8 17:41:39 28° NE 17:43:36 46° E 17:47:47 10° S
Cosmos 1125 Rocket 3.8 17:39:31 10° NNW 17:44:33 43° ENE 17:47:31 22° ESE
Cosmos 2142 Rocket 4.4 17:39:15 10° S 17:45:21 71° E 17:51:35 10° NNE
Cosmos 921 Rocket 4.1 17:42:38 10° SSE 17:45:22 26° ESE 17:45:22 26° ESE
COSMOS 2455 2.8 17:42:26 10° SSW 17:48:28 86° SE 17:52:28 23° NE
Cosmos 1633 Rocket 2.9 17:46:01 10° N 17:50:25 83° E 17:54:49 10° SSE
ATLAS 2AS CENTAUR R/B 4.0 17:44:22 10° NW 17:50:46 28° N 17:54:01 21° NE
Cosmos 2279 Rocket 3.9 17:44:35 10° S 17:50:46 74° E 17:56:59 10° NNE
ISS -2.2 17:48:00 10° W 17:51:07 34° SSW 17:53:03 18° SSE
Cosmos 2360 Rocket 3.1 17:47:11 10° NNW 17:52:05 28° NE 17:52:12 28° NE
Cosmos 44 Rocket 3.1 17:48:08 10° NW 17:53:07 76° NE 17:56:04 24° SE
Cosmos 2266 Rocket 4.1 17:46:53 10° N 17:53:07 53° ENE 17:59:23 10° SSE
YAOGAN 1 3.7 17:56:50 27° NNE 17:56:50 27° NNE 17:59:09 10° N
CZ-4 R/B 3.7 17:59:29 12° N 17:59:29 12° N 17:59:55 10° N
USA 234 3.9 17:50:28 10° SE 17:56:50 54° SW 18:03:15 10° WNW
Meteor 1-11 Rocket 3.9 17:51:29 10° N 17:56:56 48° ENE 18:02:26 10° SE
Cosmos 1666 2.8 17:53:28 10° NNW 17:57:11 72° W 18:00:53 10° S
Meteor 1-10 Rocket 4.4 17:52:37 10° SSE 17:58:07 47° E 18:00:37 29° NE
Cosmos 1151 Rocket 3.0 17:57:17 10° S 18:01:37 86° W 18:04:41 20° N
COSMOS 2428 4.4 18:01:09 10° N 18:03:52 17° NNE 18:03:52 17° NNE
CZ-4 R/B 4.3 18:03:23 10° SSE 18:07:30 89° WSW 18:11:41 10° NNW
SKYMED 3 4.4 18:06:03 36° NNE 18:07:47 80° ESE 18:12:08 10° SSW
USA 305 2.9 18:04:13 10° WNW 18:08:26 61° NNE 18:08:40 60° NNE
Cosmos 1900 4.3 18:06:32 10° SSW 18:11:18 60° ESE 18:11:48 56° E
Cosmos 2322 Rocket 2.3 18:07:24 10° NNW 18:13:00 53° NE 18:13:54 48° E
Okean O Rocket 1.7 18:08:55 10° S 18:13:22 76° WSW 18:17:52 10° NNW
Feng Yun 1-1 Rocket 4.2 18:08:44 10° SSE 18:14:37 74° ENE 18:20:28 10° NNW
Meteor 2-15 4.3 18:09:24 10° S 18:15:28 71° E 18:21:06 12° NNE
Landsat 5 3.7 18:16:56 54° SSE 18:16:56 54° SSE 18:20:09 10° S
Cosmos 1980 Rocket 3.6 18:12:50 10° NW 18:18:02 38° WSW 18:23:10 10° S
Cosmos 1470 Rocket 3.6 18:16:03 10° NNW 18:20:32 83° W 18:25:00 10° S
Cosmos 1812 3.8 18:18:13 10° SSW 18:21:54 43° WNW 18:23:53 23° NNW
Cosmos 1328 Rocket 3.7 18:17:55 10° SSW 18:22:21 75° W 18:24:03 37° N
Spot 2 4.3 18:20:29 23° SSE 18:23:42 73° ENE 18:28:49 10° NNW
SL-16 R/B 2.1 18:25:45 10° NNW 18:31:29 87° ENE 18:33:21 45° SSE
SKYMED 2 4.0 18:30:16 38° N 18:31:43 60° WNW 18:35:59 10° SSW
Cosmos 1570 Rocket 4.3 18:28:22 10° SSW 18:33:34 66° WNW 18:35:28 39° N
Cosmos 2237 Rocket 4.4 18:31:36 10° N 18:32:29 12° N 18:32:29 12° N
Cosmos 1655 Rocket 4.1 18:28:15 10° NNW 18:34:41 80° W 18:41:02 10° S
Cosmos 2298 Rocket 4.2 18:29:31 10° NNW 18:34:51 72° WSW 18:38:49 18° SSE
Cosmos 2082 Rocket 2.9 18:30:30 10° SW 18:36:02 51° NW 18:38:46 28° N
ATLAS CENTAUR R/B 2.7 18:30:41 10° WSW 18:37:35 48° NNW 18:37:45 48° NNW
USA 306 3.7 18:36:25 10° WNW 18:39:34 48° NW 18:39:34 48° NW
Cosmos 2333 Rocket 3.5 18:39:38 10° NNW 18:42:44 27° N 18:42:44 27° N
Cosmos 1818 4.4 18:41:30 10° NW 18:46:46 48° WSW 18:49:43 24° S
ARGOS 4.2 18:42:17 10° S 18:47:25 44° W 18:52:36 10° NNW
GEOS 3 Rocket 3.7 18:54:52 74° SW 18:54:54 74° SW 19:00:07 10° NW
USA 307 4.5 18:55:37 10° WNW 18:58:01 33° WNW 18:58:01 33° WNW
USA 267 3.5 19:03:55 52° NNE 19:04:45 55° NNW 19:11:05 10° W
Cosmos 2219 Rocket 3.9 19:00:08 10° NNW 19:02:19 22° N 19:02:19 22° N
CZ-2C R/B 3.9 19:03:19 19° N 19:06:31 37° WNW 19:11:12 10° SW
ATLAS CENTAUR R/B 4.4 19:15:24 10° NNW 19:15:31 10° NNW 19:15:31 10° NNW
Lacrosse 5 rocket 3.9 19:18:52 10° WNW 19:20:27 19° W 19:20:27 19° W
COSMOS 2455 4.4 19:30:00 10° W 19:35:08 28° NNW 19:35:38 28° NNW
Cosmos 2360 Rocket 3.6 19:30:55 10° NNW 19:33:59 33° NW 19:33:59 33° NW
ATLAS 2AS CENTAUR R/B 3.9 19:36:42 10° NW 19:41:27 33° N 19:41:27 33° N
Cosmos 2322 Rocket 3.9 19:51:51 10° NW 19:55:46 29° W 19:55:46 29° W
